SKY130 OMSJ-OBBI

Flight info

Callsign SKY130
Flight time N/A
Altitude 22000
Route NABIX P699 OXARI M430 TOSNA
Aircraft A346/H-SDE2E3FGHIJ3J4J5M1RWXY/LB1D1

Departure

Time N/A
Airport Sharjah International Airport (OMSJ)

Arrival

Time 2026-04-30 12:24
Airport Bahrain International Airport (OBBI)
Time Latitude Longitude Altitude Speed Heading
2026-04-30 12:02 25.58535 51.12422 16996 ft 354 kts 327°
2026-04-30 12:02 25.60679 51.11205 16992 ft 338 kts 327°
2026-04-30 12:02 25.62721 51.10043 16995 ft 324 kts 326°
2026-04-30 12:02 25.64718 51.08901 17002 ft 322 kts 326°
2026-04-30 12:03 25.66711 51.07757 17006 ft 322 kts 326°
2026-04-30 12:03 25.71601 51.04956 17008 ft 322 kts 326°
2026-04-30 12:03 25.75325 51.02827 17011 ft 322 kts 326°
2026-04-30 12:04 25.77343 51.01674 17012 ft 322 kts 326°
2026-04-30 12:04 25.79314 51.00547 16962 ft 322 kts 326°
2026-04-30 12:04 25.81316 50.99402 16908 ft 321 kts 326°
2026-04-30 12:04 25.83303 50.98265 16886 ft 321 kts 326°
2026-04-30 12:05 25.85293 50.97126 16881 ft 322 kts 326°
2026-04-30 12:05 25.87282 50.95987 16876 ft 322 kts 326°
2026-04-30 12:05 25.89151 50.94685 16863 ft 313 kts 314°
2026-04-30 12:05 25.90881 50.93239 16692 ft 314 kts 325°
2026-04-30 12:06 25.92883 50.92214 16214 ft 319 kts 331°
2026-04-30 12:06 25.94957 50.91308 15823 ft 320 kts 332°
2026-04-30 12:06 25.97003 50.90443 15454 ft 318 kts 333°
2026-04-30 12:06 25.99066 50.89578 15101 ft 317 kts 333°
2026-04-30 12:07 26.01140 50.88713 14742 ft 315 kts 333°
2026-04-30 12:07 26.03190 50.87861 14382 ft 313 kts 333°
2026-04-30 12:07 26.05228 50.87016 14032 ft 312 kts 333°
2026-04-30 12:07 26.07251 50.86180 13744 ft 308 kts 333°
2026-04-30 12:08 26.09263 50.85434 13571 ft 305 kts 343°
2026-04-30 12:08 26.11394 50.85478 13372 ft 311 kts
2026-04-30 12:08 26.13344 50.86516 13184 ft 313 kts 36°
2026-04-30 12:08 26.14737 50.88346 12934 ft 308 kts 64°
2026-04-30 12:09 26.15294 50.90562 12756 ft 297 kts 91°
2026-04-30 12:09 26.14963 50.92750 12528 ft 280 kts 120°
2026-04-30 12:09 26.13857 50.94438 12197 ft 264 kts 150°
2026-04-30 12:09 26.12269 50.95272 11815 ft 247 kts 179°
2026-04-30 12:10 26.10638 50.95096 11438 ft 232 kts 209°
2026-04-30 12:10 26.09409 50.94017 11051 ft 225 kts 239°
2026-04-30 12:10 26.08940 50.92388 10663 ft 225 kts 270°
2026-04-30 12:10 26.09375 50.90711 10285 ft 233 kts 301°
2026-04-30 12:11 26.10544 50.89424 9851 ft 243 kts 318°
2026-04-30 12:11 26.11970 50.88309 9202 ft 257 kts 322°
2026-04-30 12:11 26.13459 50.87213 8750 ft 261 kts 322°
2026-04-30 12:11 26.14995 50.86093 8411 ft 259 kts 323°
2026-04-30 12:12 26.16478 50.85012 8028 ft 257 kts 323°
2026-04-30 12:12 26.17969 50.83918 7611 ft 256 kts 322°
2026-04-30 12:12 26.19448 50.82835 7196 ft 253 kts 323°
2026-04-30 12:12 26.20914 50.81763 6814 ft 251 kts 323°
2026-04-30 12:13 26.22364 50.80696 6426 ft 249 kts 323°
2026-04-30 12:13 26.23805 50.79629 6022 ft 247 kts 323°
2026-04-30 12:13 26.25193 50.78539 5711 ft 239 kts 314°
2026-04-30 12:13 26.26251 50.77182 5509 ft 227 kts 313°
2026-04-30 12:14 26.27573 50.76288 5287 ft 225 kts 345°
2026-04-30 12:14 26.29096 50.76363 5115 ft 225 kts 18°
2026-04-30 12:14 26.30464 50.77183 4959 ft 222 kts 30°
2026-04-30 12:14 26.31729 50.78161 4716 ft 220 kts 34°
2026-04-30 12:15 26.32733 50.79439 4447 ft 224 kts 65°
2026-04-30 12:15 26.32942 50.81163 4184 ft 230 kts 99°
2026-04-30 12:15 26.32345 50.82801 4020 ft 226 kts 118°
2026-04-30 12:15 26.31509 50.84254 3824 ft 219 kts 122°
2026-04-30 12:16 26.30631 50.85655 3443 ft 221 kts 122°
2026-04-30 12:16 26.29736 50.87044 3106 ft 220 kts 122°
2026-04-30 12:16 26.28843 50.88396 2819 ft 218 kts 122°
2026-04-30 12:16 26.27932 50.89749 2453 ft 219 kts 127°
2026-04-30 12:17 26.25114 50.90735 1752 ft 225 kts 199°
2026-04-30 12:17 26.23693 50.90072 1533 ft 221 kts 211°
2026-04-30 12:17 26.22308 50.89272 1500 ft 226 kts 212°
2026-04-30 12:18 26.20945 50.88453 1508 ft 219 kts 213°
2026-04-30 12:18 26.19608 50.87663 1489 ft 216 kts 212°
2026-04-30 12:18 26.18278 50.86883 1491 ft 216 kts 213°
2026-04-30 12:18 26.16928 50.86094 1488 ft 221 kts 213°
2026-04-30 12:19 26.15817 50.84993 1475 ft 207 kts 246°
2026-04-30 12:19 26.15525 50.83566 1455 ft 184 kts 286°
2026-04-30 12:19 26.15996 50.82311 1500 ft 173 kts 308°
2026-04-30 12:19 26.16683 50.81222 1498 ft 171 kts 312°
2026-04-30 12:20 26.17375 50.80152 1495 ft 170 kts 311°
2026-04-30 12:20 26.18045 50.79067 1497 ft 169 kts 311°
2026-04-30 12:20 26.18696 50.77972 1496 ft 170 kts 310°
2026-04-30 12:20 26.19339 50.76866 1500 ft 170 kts 310°
2026-04-30 12:21 26.19980 50.75752 1494 ft 171 kts 309°
2026-04-30 12:21 26.20624 50.74626 1494 ft 172 kts 309°
2026-04-30 12:21 26.21266 50.73500 1500 ft 172 kts 309°
2026-04-30 12:21 26.21900 50.72391 1495 ft 172 kts 310°
2026-04-30 12:22 26.22535 50.71279 1363 ft 165 kts 310°
2026-04-30 12:22 26.23128 50.70243 1160 ft 151 kts 309°
2026-04-30 12:22 26.23673 50.69291 949 ft 141 kts 308°
2026-04-30 12:22 26.24200 50.68375 784 ft 140 kts 308°
2026-04-30 12:23 26.24720 50.67463 632 ft 139 kts 307°
2026-04-30 12:23 26.25235 50.66547 453 ft 139 kts 307°
2026-04-30 12:23 26.25753 50.65639 243 ft 138 kts 308°
2026-04-30 12:23 26.26271 50.64756 61 ft 134 kts 307°
2026-04-30 12:24 26.26752 50.63935 29 ft 108 kts 303°
2026-04-30 12:24 26.27059 50.63407 23 ft 56 kts 302°
2026-04-30 12:24 26.27186 50.63185 24 ft 19 kts 302°
2026-04-30 12:24 26.27244 50.63060 24 ft 19 kts 285°
2026-04-30 12:25 26.27256 50.62900 26 ft 22 kts 272°
2026-04-30 12:25 26.27259 50.62823 27 ft 0 kts 272°
2026-04-30 12:25 26.27259 50.62808 27 ft 4 kts 272°
2026-04-30 12:25 26.27261 50.62766 27 ft 7 kts 272°
2026-04-30 12:26 26.27275 50.62697 26 ft 11 kts 294°
2026-04-30 12:26 26.27325 50.62607 30 ft 14 kts 303°
2026-04-30 12:26 26.27375 50.62522 28 ft 11 kts 302°
2026-04-30 12:26 26.27408 50.62464 29 ft 9 kts 302°
2026-04-30 12:27 26.27445 50.62400 28 ft 10 kts 303°
2026-04-30 12:27 26.27476 50.62347 28 ft 6 kts 303°
2026-04-30 12:27 26.27498 50.62309 28 ft 5 kts 303°
2026-04-30 12:27 26.27514 50.62281 27 ft 3 kts 303°
2026-04-30 12:28 26.27522 50.62267 25 ft 2 kts 303°
2026-04-30 12:28 26.27532 50.62249 25 ft 3 kts 297°
2026-04-30 12:28 26.27533 50.62227 27 ft 3 kts 258°
2026-04-30 12:28 26.27525 50.62207 27 ft 1 kts 225°
2026-04-30 12:29 26.27503 50.62186 26 ft 5 kts 219°
2026-04-30 12:29 26.27486 50.62167 26 ft 2 kts 236°
2026-04-30 12:29 26.27482 50.62149 29 ft 3 kts 272°
2026-04-30 12:29 26.27491 50.62118 29 ft 5 kts 294°
2026-04-30 12:30 26.27503 50.62091 27 ft 3 kts 300°
2026-04-30 12:30 26.27510 50.62079 30 ft 2 kts 301°
2026-04-30 12:30 26.27531 50.62042 29 ft 6 kts 302°
2026-04-30 12:30 26.27544 50.62011 26 ft 3 kts 290°
2026-04-30 12:31 26.27550 50.61995 29 ft 1 kts 290°
2026-04-30 12:31 26.27557 50.61975 28 ft 5 kts 295°
2026-04-30 12:31 26.27573 50.61942 27 ft 4 kts 300°
2026-04-30 12:31 26.27585 50.61921 29 ft 0 kts 301°